SCP
0 0 0 0 0 0 0 0 0 0 0 0 0 0 0 0 0 0 0 0 0 0 0 0 0 0 0 0 0 0 0 0 0 0 0 0 0 0 0 0 0 0 0 0
-0 -0 0 0 0 0 0 0 0 0 0 0 0 0 0 0 0 0 0 0 0 0 0 0 0 0 0 0 0 0 0 0 0 0 0 0 0 0 0 0 0 0 0 0
-0 -0 0 -0 -0 0 0 0 0 0 0 0 0 0 0 0 0 0 0 0 0 0 0 0 0 0 0 0 0 0 0 0 0 0 0 0 0 0 0 0 0 0 0 0
-0 0 -0 0 0 0 0 0 0 0 0 0 0 0 0 0 0 0 0 0 0 0 0 0 0 0 0 0 0 0 0 0 0 0 0 0 0 0 0 0 0 0 0 0
0 0 -0 -0 -0 0 0 0 0 0 0 0 0 0 0 0 0 0 -0 -0 0 0 0 0 0 0 0 0 0 0 0 0 0 0 0 0 0 0 0 0 0 0 0 0
0 0 -0 -0 0 0 0 0 0 0 0 0 0 0 0 0 0 0 0 0 0 0 0 0 0 0 0 0 0 0 0 0 0 0 0 0 0 0 0 0 0 0 0 0
0 0 0 0 0 0 0 0 0 0 0 0 0 0 0 0 0 0 0 0 0 0 0 0 0 0 0 0 0 0 0 0 0 0 0 0 0 0 0 0 0 0 0 0
0 0 0 0 0 0 -0 -0 -0 -0 0 0 0 0 0 0 0 0 0 0 0 0 0 0 0 0 0 0 0 0 0 0 0 0 0 0 0 0 -0 -0 -0 -0 0 0
0 0 0 0 0 0 0 0 0 0 0 0 0 0 0 0 0 0 0 0 0 0 0 0 0 0 0 0 0 0 0 0 0 0 0 0 0 -0 -0 -0 0 0 0 0
0 0 0 0 0 0 0 0 0 0 0 0 0 0 0 0 0 0 0 0 0 0 0 0 0 0 0 0 0 0 0 0 0 0 0 -0 -0 -0 0 0 0 0 0 0
0 0 0 0 -0 0 0 0 -0 0 0 0 0 0 0 0 0 0 0 0 0 0 0 0 0 0 0 0 0 0 0 0 0 0 0 0 0 0 0 0 0 0 0 0
-0 0 -0 -0 0 0 0 0 0 0 0 0 0 0 0 0 0 0 0 0 0 0 0 0 0 0 0 0 0 0 0 0 0 0 -0 0 0 0 -0 0 0 0 0 0
0 0 -0 -0 0 0 0 0 0 0 0 0 0 0 0 0 0 0 0 0 0 0 0 0 0 0 0 0 0 0 0 0 0 0 -0 0 0 0 0 0 0 0 0 0
-0 -0 -0 -0 0 0 0 0 0 0 0 0 0 0 0 0 0 0 0 0 0 0 0 0 0 0 0 0 0 0 0 0 0 0 0 0 0 0 0 0 0 0 0 0
0 0 0 0 0 0 0 0 0 0 0 0 0 0 0 0 0 0 0 0 0 0 0 0 0 0 0 0 0 0 0 0 0 0 -0 0 0 0 0 0 0 0 0 0
0 0 0 0 0 0 0 0 0 0 0 0 0 0 0 0 0 0 0 0 0 0 0 0 0 0 0 0 0 0 0 0 0 0 -0 0 0 0 0 0 0 0 0 0
0 0 0 0 0 0 -0 -0 0 0 0 0 0 0 0 0 0 0 0 0 0 0 0 0 0 0 0 -0 0 0 0 0 0 0 0 0 0 0 0 0 0 0 0 0
0 0 0 0 0 0 0 -0 0 0 0 -0 0 0 0 0 0 0 0 0 0 0 0 0 0 0 0 0 0 0 0 0 0 0 0 0 0 0 0 0 0 0 0 0
0 0 0 0 0 0 0 0 -0 0 -0 0 0 0 0 0 0 0 0 0 0 0 -0 0 0 0 0 0 0 0 0 0 0 0 0 0 0 0 0 0 0 0 0 0
0 0 0 0 0 0 0 -0 0 0 0 0 0 0 0 0 0 0 0 0 -0 -0 -0 -0 -0 -0 0 0 0 0 0 0 0 0 0 0 0 0 0 0 0 0 0 0
0 0 0 0 0 0 0 0 -0 0 0 0 0 0 0 0 0 0 0 0 -0 0 0 0 -0 0 0 0 0 0 0 0 0 0 0 0 0 0 0 0 0 0 0 0
0 0 0 0 0 0 0 0 0 0 0 0 0 0 0 0 0 0 0 0 0 0 0 0 0 0 0 0 0 0 0 0 0 0 0 0 0 0 0 0 0 0 0 0
0 0 0 0 0 0 -0 0 0 0 0 0 0 0 0 0 0 0 0 0 0 0 0 0 0 0 0 0 0 0 0 0 0 0 0 0 0 0 0 0 0 0 0 0
0 0 0 0 0 0 0 0 0 0 0 0 0 0 0 0 0 0 0 0 0 0 0 0 0 0 0 0 0 0 0 0 0 0 0 0 0 0 0 0 0 0 0 0
0 0 0 0 0 0 0 0 0 0 0 0 0 0 0 0 0 0 0 0 0 0 0 0 0 0 0 0 0 0 0 0 0 0 0 0 0 0 0 0 0 0 0 0
0 0 0 0 0 0 0 0 0 0 0 0 0 0 0 0 0 0 0 0 0 0 0 0 0 0 0 0 0 0 0 0 0 0 0 0 0 0 0 0 0 0 0 0
0 0 0 0 0 0 -0 0 0 0 0 0 0 0 0 0 0 0 0 0 0 0 0 0 0 0 0 0 0 0 0 0 0 0 0 0 0 0 0 0 0 0 0 0
Wind_Speed_500mb
15 18 24 38 49 41 13 12 13 12 20 18 19 21 35 56 58 58 66 78 87 89 87 83 78 73 59 47 39 31 20 22 24 23 18 15 12 11 9 8 11 15 18 11
17 28 27 44 65 50 21 8 8 12 10 11 10 11 36 53 62 65 73 78 83 86 88 86 85 77 63 50 40 34 24 25 27 26 22 17 10 15 13 13 17 16 17 14
10 7 11 33 14 26 18 14 19 11 19 16 12 16 42 56 69 76 77 85 92 95 90 89 87 79 65 51 39 37 25 27 28 26 24 19 18 17 18 17 19 21 19 7
5 5 10 20 38 36 30 19 14 11 15 26 32 48 48 67 75 73 75 81 87 88 87 89 85 74 61 48 40 37 28 24 28 30 25 22 18 16 17 20 17 12 5 7
8 7 13 14 20 8 9 5 22 20 7 14 36 29 10 61 65 76 85 87 88 84 86 91 83 72 59 49 43 38 31 25 31 32 24 22 21 16 18 16 11 6 7 13
6 7 16 9 2 32 23 9 19 28 20 13 28 10 11 42 57 64 69 73 80 81 84 82 75 65 59 50 43 38 33 32 32 24 21 19 18 17 13 13 11 11 15 20
6 9 12 12 16 33 9 11 26 29 29 37 12 14 34 38 51 57 65 73 73 74 76 77 68 64 57 46 40 31 28 32 28 22 15 14 11 11 11 8 10 16 23 26
7 8 13 7 8 4 10 21 28 33 45 42 43 22 41 51 48 54 59 67 69 69 71 66 62 61 51 41 31 34 29 31 24 18 17 16 9 9 9 12 19 23 27 24
10 9 6 21 14 30 40 47 41 40 44 35 39 43 57 55 55 60 64 66 62 66 67 65 60 52 44 34 38 39 34 30 22 16 22 16 13 11 14 20 24 26 32 37
7 7 9 50 47 40 40 47 42 49 53 30 43 55 61 61 68 66 64 61 63 65 67 64 55 44 30 37 39 37 38 29 22 20 18 13 13 15 17 22 33 41 39 38
12 19 32 14 46 52 42 38 34 40 36 23 43 64 65 73 71 70 66 64 66 67 63 59 51 42 36 41 39 36 34 28 28 19 15 12 10 15 27 32 33 25 27 29
10 20 26 43 67 58 45 43 40 34 25 26 43 60 71 71 74 70 70 70 66 60 56 49 44 35 45 43 41 38 40 33 28 20 16 12 14 17 23 21 16 21 28 29
48 38 61 66 68 64 64 55 42 30 30 39 42 56 64 70 67 67 67 63 57 54 46 43 38 33 40 44 40 40 36 33 27 15 12 10 12 20 21 18 19 18 21 15
77 57 74 82 61 63 48 39 35 29 27 29 42 62 70 69 66 63 60 55 50 46 43 37 34 29 45 44 47 36 39 28 16 7 6 8 15 19 17 14 12 11 14 17
78 83 79 81 74 50 39 35 33 40 41 25 33 60 68 66 63 58 54 50 45 43 39 36 33 47 47 51 44 44 29 20 11 6 12 12 14 14 2 7 12 15 14 11
64 58 51 62 59 46 37 14 28 39 50 65 53 62 57 56 56 55 52 48 52 48 39 34 47 51 57 49 45 32 25 16 15 7 8 7 11 6 5 9 13 10 5 3
41 43 42 56 53 41 30 12 33 57 44 53 63 61 57 58 55 51 46 42 38 35 32 47 56 54 48 48 42 30 18 15 7 9 2 4 12 7 9 12 12 4 3 4
80 81 77 64 64 38 28 24 35 48 49 60 61 62 63 60 57 54 47 44 39 36 49 49 46 44 42 47 34 26 18 11 4 5 11 9 16 11 9 12 8 4 1 4
78 75 69 58 46 31 42 15 43 21 38 59 69 67 62 57 54 51 52 48 49 59 53 46 42 41 39 36 28 22 17 6 0 8 10 19 17 8 7 11 6 2 3 6
64 66 62 49 46 38 52 57 61 39 32 61 68 59 57 56 52 56 53 52 56 54 50 46 41 35 29 26 20 18 16 5 12 6 16 18 10 8 9 8 6 3 3 8
43 48 39 46 39 39 65 68 71 63 48 67 57 56 57 54 55 57 56 57 47 45 44 45 41 33 26 20 17 19 11 13 13 15 19 12 10 9 8 7 5 2 3 7
34 34 34 34 38 36 42 60 66 62 62 65 59 59 58 59 56 56 51 52 49 42 41 44 39 32 25 19 16 16 22 21 22 20 13 11 10 7 5 3 5 3 3 9
34 35 39 47 43 45 37 42 43 58 69 67 63 61 57 58 62 64 61 50 45 38 34 36 34 29 22 25 33 21 18 24 15 11 9 7 6 5 2 6 7 3 6 14
34 47 47 31 34 33 48 63 54 53 66 61 57 54 60 63 58 53 49 49 45 39 31 32 35 33 27 34 33 28 24 17 10 8 7 5 5 5 7 6 1 5 13 20
35 37 46 51 45 47 53 76 51 58 60 58 53 48 51 55 58 56 51 49 47 37 41 34 39 39 32 32 29 25 18 12 4 3 3 4 6 6 6 4 7 14 19 21
37 32 46 48 48 55 74 54 56 56 61 61 56 50 50 52 55 51 45 46 41 47 40 36 34 31 38 33 23 19 15 7 4 6 9 13 11 8 4 7 12 13 16 20
55 49 48 49 61 83 66 43 56 59 59 59 58 53 53 55 51 47 43 44 47 41 29 29 28 35 39 30 21 17 13 9 7 12 16 14 11 6 6 7 10 14 18 20
Wind_Direction_500mb
228 288 314 309 309 282 206 183 173 218 183 220 206 188 180 183 186 183 187 194 197 199 202 204 205 203 203 205 202 202 206 200 193 182 183 182 212 221 249 257 290 307 327 336
255 281 284 308 307 283 224 163 119 143 237 194 180 156 166 183 181 186 193 193 197 203 203 205 205 203 201 203 202 203 203 201 194 187 193 202 222 230 236 252 267 297 310 317
267 271 333 309 293 305 223 199 145 164 218 157 167 186 179 182 188 194 195 196 202 207 206 208 208 204 202 202 200 200 203 200 203 193 198 214 232 238 249 283 271 275 293 271
224 24 228 222 308 310 252 227 188 150 194 182 179 189 196 202 200 198 197 200 206 207 209 209 207 202 204 201 199 198 198 205 202 201 209 209 233 253 257 286 267 271 231 252
170 195 319 288 286 322 338 2 30 343 283 150 141 142 144 200 206 209 210 212 213 211 210 207 202 200 201 197 198 199 198 200 194 191 209 227 238 262 268 275 213 225 282 305
158 209 220 214 274 303 287 273 7 5 340 306 150 142 228 186 195 207 210 212 211 207 207 204 197 199 197 197 198 201 195 191 182 201 214 231 240 261 262 211 222 271 301 313
185 216 283 283 339 329 244 271 328 341 320 309 267 205 199 173 187 203 208 209 207 205 204 197 195 194 194 197 203 197 189 187 197 206 235 222 246 227 191 207 270 299 310 320
160 196 254 152 29 269 267 311 315 328 323 304 268 241 190 186 180 188 195 196 198 198 195 190 192 191 191 198 192 183 188 194 191 219 219 198 188 184 218 266 289 301 314 322
202 231 271 318 267 277 289 279 293 310 313 301 244 201 188 186 183 186 189 187 192 192 183 183 187 191 191 190 184 182 186 189 200 223 213 216 218 231 252 279 292 303 311 311
359 328 298 310 318 322 303 281 288 290 292 285 233 202 186 181 180 181 183 184 183 179 176 178 184 188 197 189 183 185 185 186 197 183 189 218 255 267 277 295 308 314 318 316
279 296 313 318 329 325 315 293 298 297 271 278 225 200 187 184 177 176 175 176 174 176 178 180 182 186 190 183 183 186 184 191 186 196 224 242 265 291 305 310 314 327 334 331
252 295 298 303 313 315 304 304 289 303 242 211 200 196 185 178 175 171 169 171 172 176 176 178 181 191 183 185 189 191 189 194 193 204 223 260 302 316 328 322 329 324 322 327
263 278 304 302 306 311 301 289 276 271 212 184 189 188 177 177 168 168 169 170 174 175 176 178 181 179 190 189 189 181 193 194 180 201 245 279 305 320 338 332 306 293 321 342
286 292 298 296 290 303 292 297 268 252 197 197 182 185 175 170 168 168 169 172 174 175 176 183 189 194 178 175 174 181 171 178 192 199 230 282 316 337 324 290 270 298 320 319
275 278 278 288 297 286 273 299 253 224 185 157 186 181 173 168 167 168 170 169 170 175 179 189 193 172 174 169 172 168 175 183 208 264 282 281 337 325 249 240 242 302 299 305
269 280 278 297 293 267 270 311 195 183 170 174 191 181 172 171 166 166 168 168 175 179 183 185 167 166 166 171 172 173 179 190 200 237 290 307 302 226 297 257 269 274 275 290
265 280 288 297 300 286 247 265 213 164 178 187 182 173 174 169 163 167 168 173 178 177 179 165 159 164 172 176 176 179 173 173 209 320 243 239 206 235 289 272 268 233 152 110
261 269 275 282 289 279 219 237 154 167 190 193 179 175 175 173 168 169 164 163 168 166 153 154 160 165 169 177 185 187 187 186 243 4 198 216 207 267 284 251 256 279 62 32
260 263 270 271 274 254 184 122 199 167 193 186 180 177 178 174 170 163 160 167 163 150 151 155 159 161 165 173 180 187 187 212 240 179 225 196 229 254 261 229 231 187 100 43
261 261 262 263 249 234 189 143 171 216 217 192 180 173 174 172 166 162 165 164 156 150 149 154 160 162 165 173 180 188 183 144 177 219 195 201 233 261 210 215 199 180 58 25
246 243 245 237 230 204 194 187 188 223 215 193 182 176 175 166 166 165 160 159 155 157 158 160 163 160 166 170 160 184 189 163 174 182 189 209 227 225 211 195 202 154 36 356
218 218 214 202 191 185 179 186 186 195 190 184 182 174 170 166 165 165 163 162 156 160 160 163 166 167 164 157 140 165 151 165 183 183 196 227 228 224 211 239 194 160 334 341
209 197 180 175 183 171 170 145 165 178 178 181 178 171 169 167 168 164 164 162 160 163 165 164 164 158 145 146 141 143 157 163 173 202 206 213 224 203 170 154 171 202 326 344
189 201 189 186 205 200 182 176 190 178 176 174 173 171 168 164 165 163 153 156 159 159 165 166 164 155 146 142 155 168 179 177 187 196 197 187 172 133 99 110 102 343 340 337
180 213 192 184 178 172 153 160 161 167 170 167 165 163 166 166 158 155 159 160 157 157 155 145 144 142 142 138 138 151 163 158 167 201 151 141 137 109 99 53 358 342 336 335
176 184 183 171 161 151 149 165 160 163 164 161 160 158 157 157 156 154 154 157 156 158 150 139 136 139 141 145 155 165 160 194 195 150 130 133 131 114 64 354 344 351 351 351
172 170 171 169 160 168 169 152 159 166 164 158 152 154 154 155 157 161 155 153 154 156 148 142 141 155 154 157 172 173 184 191 156 130 125 120 103 66 17 20 17 10 5 3
Wind_Speed_850mb
15 18 24 38 49 41 13 12 13 12 20 18 19 21 35 56 58 58 66 78 87 89 87 83 78 73 59 47 39 31 20 22 24 23 18 15 12 11 9 8 11 15 18 11
17 28 27 44 65 50 21 8 8 12 10 11 10 11 36 53 62 65 73 78 83 86 88 86 85 77 63 50 40 34 24 25 27 26 22 17 10 15 13 13 17 16 17 14
10 7 11 33 14 26 18 14 19 11 19 16 12 16 42 56 69 76 77 85 92 95 90 89 87 79 65 51 39 37 25 27 28 26 24 19 18 17 18 17 19 21 19 7
5 5 10 20 38 36 30 19 14 11 15 26 32 48 48 67 75 73 75 81 87 88 87 89 85 74 61 48 40 37 28 24 28 30 25 22 18 16 17 20 17 12 5 7
8 7 13 14 20 8 9 5 22 20 7 14 36 29 10 61 65 76 85 87 88 84 86 91 83 72 59 49 43 38 31 25 31 32 24 22 21 16 18 16 11 6 7 13
6 7 16 9 2 32 23 9 19 28 20 13 28 10 11 42 57 64 69 73 80 81 84 82 75 65 59 50 43 38 33 32 32 24 21 19 18 17 13 13 11 11 15 20
6 9 12 12 16 33 9 11 26 29 29 37 12 14 34 38 51 57 65 73 73 74 76 77 68 64 57 46 40 31 28 32 28 22 15 14 11 11 11 8 10 16 23 26
7 8 13 7 8 4 10 21 28 33 45 42 43 22 41 51 48 54 59 67 69 69 71 66 62 61 51 41 31 34 29 31 24 18 17 16 9 9 9 12 19 23 27 24
10 9 6 21 14 30 40 47 41 40 44 35 39 43 57 55 55 60 64 66 62 66 67 65 60 52 44 34 38 39 34 30 22 16 22 16 13 11 14 20 24 26 32 37
7 7 9 50 47 40 40 47 42 49 53 30 43 55 61 61 68 66 64 61 63 65 67 64 55 44 30 37 39 37 38 29 22 20 18 13 13 15 17 22 33 41 39 38
12 19 32 14 46 52 42 38 34 40 36 23 43 64 65 73 71 70 66 64 66 67 63 59 51 42 36 41 39 36 34 28 28 19 15 12 10 15 27 32 33 25 27 29
10 20 26 43 67 58 45 43 40 34 25 26 43 60 71 71 74 70 70 70 66 60 56 49 44 35 45 43 41 38 40 33 28 20 16 12 14 17 23 21 16 21 28 29
48 38 61 66 68 64 64 55 42 30 30 39 42 56 64 70 67 67 67 63 57 54 46 43 38 33 40 44 40 40 36 33 27 15 12 10 12 20 21 18 19 18 21 15
77 57 74 82 61 63 48 39 35 29 27 29 42 62 70 69 66 63 60 55 50 46 43 37 34 29 45 44 47 36 39 28 16 7 6 8 15 19 17 14 12 11 14 17
78 83 79 81 74 50 39 35 33 40 41 25 33 60 68 66 63 58 54 50 45 43 39 36 33 47 47 51 44 44 29 20 11 6 12 12 14 14 2 7 12 15 14 11
64 58 51 62 59 46 37 14 28 39 50 65 53 62 57 56 56 55 52 48 52 48 39 34 47 51 57 49 45 32 25 16 15 7 8 7 11 6 5 9 13 10 5 3
41 43 42 56 53 41 30 12 33 57 44 53 63 61 57 58 55 51 46 42 38 35 32 47 56 54 48 48 42 30 18 15 7 9 2 4 12 7 9 12 12 4 3 4
80 81 77 64 64 38 28 24 35 48 49 60 61 62 63 60 57 54 47 44 39 36 49 49 46 44 42 47 34 26 18 11 4 5 11 9 16 11 9 12 8 4 1 4
78 75 69 58 46 31 42 15 43 21 38 59 69 67 62 57 54 51 52 48 49 59 53 46 42 41 39 36 28 22 17 6 0 8 10 19 17 8 7 11 6 2 3 6
64 66 62 49 46 38 52 57 61 39 32 61 68 59 57 56 52 56 53 52 56 54 50 46 41 35 29 26 20 18 16 5 12 6 16 18 10 8 9 8 6 3 3 8
43 48 39 46 39 39 65 68 71 63 48 67 57 56 57 54 55 57 56 57 47 45 44 45 41 33 26 20 17 19 11 13 13 15 19 12 10 9 8 7 5 2 3 7
34 34 34 34 38 36 42 60 66 62 62 65 59 59 58 59 56 56 51 52 49 42 41 44 39 32 25 19 16 16 22 21 22 20 13 11 10 7 5 3 5 3 3 9
34 35 39 47 43 45 37 42 43 58 69 67 63 61 57 58 62 64 61 50 45 38 34 36 34 29 22 25 33 21 18 24 15 11 9 7 6 5 2 6 7 3 6 14
34 47 47 31 34 33 48 63 54 53 66 61 57 54 60 63 58 53 49 49 45 39 31 32 35 33 27 34 33 28 24 17 10 8 7 5 5 5 7 6 1 5 13 20
35 37 46 51 45 47 53 76 51 58 60 58 53 48 51 55 58 56 51 49 47 37 41 34 39 39 32 32 29 25 18 12 4 3 3 4 6 6 6 4 7 14 19 21
37 32 46 48 48 55 74 54 56 56 61 61 56 50 50 52 55 51 45 46 41 47 40 36 34 31 38 33 23 19 15 7 4 6 9 13 11 8 4 7 12 13 16 20
55 49 48 49 61 83 66 43 56 59 59 59 58 53 53 55 51 47 43 44 47 41 29 29 28 35 39 30 21 17 13 9 7 12 16 14 11 6 6 7 10 14 18 20
Wind_Direction_850mb
228 288 314 309 309 282 206 183 173 218 183 220 206 188 180 183 186 183 187 194 197 199 202 204 205 203 203 205 202 202 206 200 193 182 183 182 212 221 249 257 290 307 327 336
255 281 284 308 307 283 224 163 119 143 237 194 180 156 166 183 181 186 193 193 197 203 203 205 205 203 201 203 202 203 203 201 194 187 193 202 222 230 236 252 267 297 310 317
267 271 333 309 293 305 223 199 145 164 218 157 167 186 179 182 188 194 195 196 202 207 206 208 208 204 202 202 200 200 203 200 203 193 198 214 232 238 249 283 271 275 293 271
224 24 228 222 308 310 252 227 188 150 194 182 179 189 196 202 200 198 197 200 206 207 209 209 207 202 204 201 199 198 198 205 202 201 209 209 233 253 257 286 267 271 231 252
170 195 319 288 286 322 338 2 30 343 283 150 141 142 144 200 206 209 210 212 213 211 210 207 202 200 201 197 198 199 198 200 194 191 209 227 238 262 268 275 213 225 282 305
158 209 220 214 274 303 287 273 7 5 340 306 150 142 228 186 195 207 210 212 211 207 207 204 197 199 197 197 198 201 195 191 182 201 214 231 240 261 262 211 222 271 301 313
185 216 283 283 339 329 244 271 328 341 320 309 267 205 199 173 187 203 208 209 207 205 204 197 195 194 194 197 203 197 189 187 197 206 235 222 246 227 191 207 270 299 310 320
160 196 254 152 29 269 267 311 315 328 323 304 268 241 190 186 180 188 195 196 198 198 195 190 192 191 191 198 192 183 188 194 191 219 219 198 188 184 218 266 289 301 314 322
202 231 271 318 267 277 289 279 293 310 313 301 244 201 188 186 183 186 189 187 192 192 183 183 187 191 191 190 184 182 186 189 200 223 213 216 218 231 252 279 292 303 311 311
359 328 298 310 318 322 303 281 288 290 292 285 233 202 186 181 180 181 183 184 183 179 176 178 184 188 197 189 183 185 185 186 197 183 189 218 255 267 277 295 308 314 318 316
279 296 313 318 329 325 315 293 298 297 271 278 225 200 187 184 177 176 175 176 174 176 178 180 182 186 190 183 183 186 184 191 186 196 224 242 265 291 305 310 314 327 334 331
252 295 298 303 313 315 304 304 289 303 242 211 200 196 185 178 175 171 169 171 172 176 176 178 181 191 183 185 189 191 189 194 193 204 223 260 302 316 328 322 329 324 322 327
263 278 304 302 306 311 301 289 276 271 212 184 189 188 177 177 168 168 169 170 174 175 176 178 181 179 190 189 189 181 193 194 180 201 245 279 305 320 338 332 306 293 321 342
286 292 298 296 290 303 292 297 268 252 197 197 182 185 175 170 168 168 169 172 174 175 176 183 189 194 178 175 174 181 171 178 192 199 230 282 316 337 324 290 270 298 320 319
275 278 278 288 297 286 273 299 253 224 185 157 186 181 173 168 167 168 170 169 170 175 179 189 193 172 174 169 172 168 175 183 208 264 282 281 337 325 249 240 242 302 299 305
269 280 278 297 293 267 270 311 195 183 170 174 191 181 172 171 166 166 168 168 175 179 183 185 167 166 166 171 172 173 179 190 200 237 290 307 302 226 297 257 269 274 275 290
265 280 288 297 300 286 247 265 213 164 178 187 182 173 174 169 163 167 168 173 178 177 179 165 159 164 172 176 176 179 173 173 209 320 243 239 206 235 289 272 268 233 152 110
261 269 275 282 289 279 219 237 154 167 190 193 179 175 175 173 168 169 164 163 168 166 153 154 160 165 169 177 185 187 187 186 243 4 198 216 207 267 284 251 256 279 62 32
260 263 270 271 274 254 184 122 199 167 193 186 180 177 178 174 170 163 160 167 163 150 151 155 159 161 165 173 180 187 187 212 240 179 225 196 229 254 261 229 231 187 100 43
261 261 262 263 249 234 189 143 171 216 217 192 180 173 174 172 166 162 165 164 156 150 149 154 160 162 165 173 180 188 183 144 177 219 195 201 233 261 210 215 199 180 58 25
246 243 245 237 230 204 194 187 188 223 215 193 182 176 175 166 166 165 160 159 155 157 158 160 163 160 166 170 160 184 189 163 174 182 189 209 227 225 211 195 202 154 36 356
218 218 214 202 191 185 179 186 186 195 190 184 182 174 170 166 165 165 163 162 156 160 160 163 166 167 164 157 140 165 151 165 183 183 196 227 228 224 211 239 194 160 334 341
209 197 180 175 183 171 170 145 165 178 178 181 178 171 169 167 168 164 164 162 160 163 165 164 164 158 145 146 141 143 157 163 173 202 206 213 224 203 170 154 171 202 326 344
189 201 189 186 205 200 182 176 190 178 176 174 173 171 168 164 165 163 153 156 159 159 165 166 164 155 146 142 155 168 179 177 187 196 197 187 172 133 99 110 102 343 340 337
180 213 192 184 178 172 153 160 161 167 170 167 165 163 166 166 158 155 159 160 157 157 155 145 144 142 142 138 138 151 163 158 167 201 151 141 137 109 99 53 358 342 336 335
176 184 183 171 161 151 149 165 160 163 164 161 160 158 157 157 156 154 154 157 156 158 150 139 136 139 141 145 155 165 160 194 195 150 130 133 131 114 64 354 344 351 351 351
172 170 171 169 160 168 169 152 159 166 164 158 152 154 154 155 157 161 155 153 154 156 148 142 141 155 154 157 172 173 184 191 156 130 125 120 103 66 17 20 17 10 5 3